Weather History for Watsonville, CA

Change the Weather History Date:

Tuesday, September 18, 2012

  Actual Average Record
Temperature  
Mean Temperature 60 °F 63 °F  
Max Temperature 68 °F 75 °F 90 °F (2003)
Min Temperature 51 °F 52 °F 48 °F (2008)
Degree Days  
Heating Degree Days 5    
Month to date heating degree days 69  
Since 1 July heating degree days 305  
Cooling Degree Days 0    
Month to date cooling degree days 0  
Year to date cooling degree days 19  
Growing Degree Days 10 (Base 50)    
Moisture  
Dew Point 50 °F    
Average Humidity 74    
Maximum Humidity 89    
Minimum Humidity 58    
Precipitation  
Precipitation 0.00 in - 0.19 in (1959)
Month to date precipitation T  
Year to date precipitation 11.98  
Since 1 July precipitation 0.05  
Sea Level Pressure  
Sea Level Pressure 30.07 in    
Wind  
Wind Speed 3 mph (SE)    
Max Wind Speed 6 mph    
Max Gust Speed 6 mph    
Visibility 10 miles    
Events      
T = Trace of Precipitation, MM = Missing Value Source: NWS Daily Summary

Daily Weather History Graph

Daily Weather History Graph

Search for Another Location

Airport:

Trip Planner

Search our weather history database for the weather conditions in past years. The results will help you decide how hot, cold, wet, or windy it might be!

Date:

Astronomy

Sep. 18, 2012 Rise Set
Actual Time 6:52 AM PDT 7:09 PM PDT
Civil Twilight 6:26 AM PDT 7:35 PM PDT
Nautical Twilight 5:55 AM PDT 8:05 PM PDT
Astronomical Twilight 5:24 AM PDT 8:36 PM PDT
Moon 9:52 AM PDT 8:43 PM PDT
Length of Visible Light 13h 08m
Length of Day
12h 17m
Waxing Crescent, 10% of the Moon is Illuminated
Sep 18
Waxing Crescent
Sep 22
First Quarter
Sep 29
Full
Oct 8
Last Quarter
Oct 15
New

Hourly Weather History & Observations

Time (PDT) Temp. Dew Point Humidity Pressure Visibility Wind Dir Wind Speed Gust Speed Precip Events Conditions
1:53 AM 55.0 °F 50.0 °F 83% 30.07 in 10.0 mi Calm Calm - N/A   Overcast
2:53 AM 55.0 °F 50.0 °F 83% 30.06 in 10.0 mi Calm Calm - N/A   Overcast
3:53 AM 55.0 °F 50.0 °F 83% 30.06 in 10.0 mi Calm Calm - N/A   Overcast
4:12 AM 53.6 °F 50.0 °F 88% 30.06 in 10.0 mi Calm Calm - N/A   Overcast
4:53 AM 54.0 °F 50.0 °F 86% 30.07 in 10.0 mi NNE 3.5 mph - N/A   Overcast
5:53 AM 54.0 °F 50.0 °F 86% 30.08 in 10.0 mi Calm Calm - N/A   Overcast
6:53 AM 54.0 °F 50.0 °F 86% 30.09 in 10.0 mi SSE 4.6 mph - N/A   Overcast
7:53 AM 54.0 °F 50.0 °F 86% 30.10 in 8.0 mi ENE 3.5 mph - N/A   Overcast
8:53 AM 55.0 °F 50.0 °F 83% 30.11 in 10.0 mi Calm Calm - N/A   Overcast
9:53 AM 57.0 °F 50.0 °F 77% 30.12 in 10.0 mi Calm Calm - N/A   Overcast
10:34 AM 59.0 °F 50.0 °F 72% 30.11 in 10.0 mi Calm Calm - N/A   Scattered Clouds
10:53 AM 60.1 °F 50.0 °F 69% 30.11 in 10.0 mi Calm Calm - N/A   Partly Cloudy
11:53 AM 64.9 °F 51.1 °F 61% 30.09 in 10.0 mi SSW 6.9 mph - N/A   Clear
12:53 PM 64.9 °F 51.1 °F 61% 30.08 in 10.0 mi SW 8.1 mph - N/A   Clear
1:53 PM 64.0 °F 51.1 °F 63% 30.06 in 10.0 mi South 5.8 mph - N/A   Clear
2:53 PM 66.0 °F 51.1 °F 59% 30.05 in 10.0 mi South 5.8 mph - N/A   Clear
3:53 PM 66.0 °F 51.1 °F 59% 30.04 in 10.0 mi South 8.1 mph - N/A   Clear
4:53 PM 66.0 °F 51.1 °F 59% 30.04 in 10.0 mi South 6.9 mph - N/A   Clear
5:53 PM 64.0 °F 50.0 °F 60% 30.03 in 10.0 mi SE 6.9 mph - N/A   Clear
6:53 PM 62.1 °F 51.1 °F 67% 30.04 in 10.0 mi ESE 5.8 mph - N/A   Clear
7:53 PM 59.0 °F 50.0 °F 72% 30.05 in 10.0 mi East 6.9 mph - N/A   Clear
8:53 PM 57.0 °F 51.1 °F 81% 30.06 in 10.0 mi NE 3.5 mph - N/A   Clear
9:53 PM 55.9 °F 51.1 °F 84% 30.08 in 10.0 mi Calm Calm - N/A   Clear
10:53 PM 54.0 °F 50.0 °F 86% 30.08 in 10.0 mi Calm Calm - N/A   Clear
11:53 PM 53.1 °F 48.9 °F 86% 30.08 in 10.0 mi Calm Calm - N/A   Unknown